[[{"header":{"parameterUnit":"m.s-1","parameterCategory":1,"la1":30.2991,"la2":30.254,"lo1":-89.0895,"lo2":-89.0444,"dy":0.0017,"dx":0.0017,"nx":28,"ny":28,"refTime":"2024-04-01T21:00:00:Z","depth":0,"parameterNumber":2,"parameterNumberName":"U-component_of_WINDS"},"data":[0,0,0,0,0,0,0,0,0,0,0,0,0,0,0,0,0,0,0,0,0,0,0,0,0,0,0,0,0,0,0,0,0,0,0,0,0,0,0,0,0,0,0,0,0,0,0,0,0,0,0,0,0,0,0,0,0,0,6.6686,6.6688,0,6.6832,6.6833,6.6835,6.6778,6.6775,6.6772,6.6768,6.6915,6.6922,6.6929,0,0,0,0,0,0,0,0,0,0,0,0,0,6.6359,6.6365,6.6686,6.6688,6.669,6.6831,6.6833,6.6835,6.6779,6.6775,6.6771,6.6767,6.6913,6.6921,6.693,0,0,0,0,0,0,0,0,0,0,0,0,0,6.6503,6.6368,6.6686,6.6679,6.6679,6.6831,6.6833,6.6836,6.678,6.6775,6.677,6.6765,6.691,6.6921,6.6931,6.7098,0,0,6.6963,6.6968,0,0,0,0,0,0,0,0,6.6494,6.6515,6.6678,6.6679,6.6681,6.6782,6.6772,6.6924,6.6781,6.6742,6.6768,6.6762,6.6875,6.6888,6.6926,6.7104,6.7111,6.6964,6.6971,6.6975,6.6978,0,0,0,0,0,0,0,6.6485,6.6508,6.6743,6.668,6.6682,6.6668,6.6683,6.68,6.6835,6.6745,6.6741,6.6759,6.6875,6.6916,6.6929,6.7113,6.6964,6.6974,6.698,6.6984,6.7439,6.7444,0,0,0,0,0,0,6.6474,6.65,6.6739,6.6748,6.6573,6.6678,6.6695,6.6754,6.6833,6.6841,6.6763,6.6756,6.6901,6.6917,6.6934,6.7137,6.6975,6.6985,6.6991,6.7433,6.744,6.7446,0,0,0,0,0,0,6.6468,6.6496,6.6733,6.6623,6.6652,6.6689,6.6757,6.676,6.6801,6.6847,6.6853,6.68,6.6897,6.6919,6.7058,6.7142,6.699,6.7,6.7426,6.7435,6.7443,6.7543,0,0,0,0,0,0,6.6458,6.6494,6.6558,6.6625,6.6658,6.6855,6.6762,6.6766,6.682,6.6812,6.6883,6.689,6.6895,6.7043,6.7069,6.7153,6.7008,6.7419,6.743,6.744,6.7533,6.7554,6.7572,0,0,0,0,0,6.6447,6.6579,6.6561,6.659,6.6738,6.686,6.6879,6.6883,6.6827,6.6892,6.6922,6.6888,6.7128,6.7058,6.7086,6.7175,6.7414,6.7427,6.7439,6.7524,6.755,6.7572,0,0,0,0,0,0,6.6518,6.6587,6.6568,6.6726,6.6788,6.685,6.6931,6.691,6.6988,6.6977,6.6978,6.6994,6.7138,6.717,6.7091,6.7342,6.7262,6.7282,6.7317,6.7342,6.7361,6.7352,6.7017,0,0,0,0,0,6.6553,6.6646,6.67,6.6834,6.6866,6.6894,6.6947,6.6945,6.7008,6.7034,6.7074,6.7136,6.7226,6.7285,6.737,6.7536,6.7553,6.7612,6.7632,6.7648,6.7665,6.7759,6.7787,6.7488,6.7488,6.7488,0,0,6.6624,6.6673,6.6732,6.685,6.6898,6.6995,6.6916,6.7021,6.7093,6.7049,6.7184,6.7216,6.7286,6.744,6.751,6.7471,6.7751,6.7664,6.7677,6.7686,6.7775,6.7803,6.7828,6.7497,6.7495,6.7494,0,0,6.6805,6.685,6.6968,6.7018,6.7092,6.711,6.7139,6.7205,6.7225,6.736,6.7331,6.7416,6.757,6.7623,6.7669,6.7873,6.7846,6.79,6.8005,6.8096,6.812,6.8141,6.8216,6.8243,6.7917,6.7917,6.7917,0,6.6884,6.703,6.7031,6.7141,6.7195,6.7161,6.7281,6.7329,6.7427,6.7465,6.742,6.7616,6.766,6.7828,6.7878,6.7916,6.795,6.7893,6.8116,6.8137,6.8157,6.8229,6.8257,6.7924,6.7923,6.7922,6.7922,0,6.7125,6.7227,6.7313,6.7411,6.7474,6.7588,6.7608,6.7672,6.7665,6.7688,6.7827,6.788,6.7977,6.8016,6.8009,6.8184,6.8158,6.8115,6.8035,6.8192,6.826,6.8287,6.7933,6.793,6.7929,6.7927,0,0,6.7354,6.7453,6.7485,6.7531,6.7611,6.7689,6.7802,6.7898,6.7955,6.8023,6.8119,6.8252,6.8214,6.8267,6.8266,6.8345,6.8508,6.8293,6.8295,6.8333,6.8707,6.8741,6.8772,6.8489,6.8494,6.8499,6.8702,0,6.7543,6.7744,6.775,6.7933,6.8028,6.7999,6.8098,6.8158,6.8183,6.8267,6.8294,6.8389,6.833,6.8362,6.844,6.8471,6.8583,6.8456,6.858,6.8585,6.8566,6.8807,6.8843,6.9032,6.8728,6.8732,6.8736,0,6.779,6.787,6.8063,6.8133,6.8173,6.8262,6.8352,6.8432,6.8501,6.8513,6.8575,6.8563,6.8679,6.8595,6.8757,6.8671,6.8722,6.8745,6.8753,6.8766,6.8671,6.883,6.9092,6.9122,6.8777,6.8774,6.8771,0,6.7942,6.8097,6.8233,6.8272,6.8356,6.842,6.8458,6.8521,6.8579,6.8658,6.8696,6.8786,6.8837,6.8907,6.892,6.8857,6.9084,6.8999,6.9099,6.9099,6.915,6.9147,6.9427,6.9179,6.9178,6.9178,6.9177,0,6.8154,6.8274,6.8303,6.8388,6.8522,6.8528,6.8661,6.8694,6.8751,6.8842,6.882,6.8905,6.8917,6.9005,6.9016,6.9151,6.9172,6.9187,6.9189,6.919,6.9189,6.9225,6.9213,6.9185,6.9183,6.9182,6.9181,0,6.8347,6.8371,6.8518,6.8587,6.8607,6.8703,6.8761,6.8842,6.8865,6.8981,6.9008,6.9044,6.9148,6.9168,6.9289,6.9296,6.9458,6.9445,6.9435,6.9435,6.9535,6.9526,6.9849,6.9893,6.9614,6.9617,6.9619,0,6.8482,6.8574,6.8653,6.8713,6.8755,6.8851,6.8911,6.8921,6.8985,6.9071,6.9143,6.9244,6.9326,6.9493,6.953,6.9624,6.9615,6.9722,6.9629,6.9629,6.962,6.9616,6.9626,6.974,6.9743,6.9746,6.9748,0,6.872,6.8728,6.8816,6.891,6.8983,6.9056,6.9126,6.9176,6.9196,6.9269,6.9375,6.9439,6.9565,6.9667,6.9761,6.9799,6.9779,6.9777,6.9805,6.9809,6.9801,6.981,6.9487,6.9769,6.9767,6.9766,6.9764,6.9764,6.889,6.8972,6.9042,6.9141,6.9195,6.9262,6.9343,6.9377,6.9466,6.9571,6.957,6.9688,6.9756,6.988,6.9925,7.0018,6.9984,7.0024,7.0035,7.0046,7.0057,6.9785,7.0034,7.0034,7.0033,7.0033,7.0032,0,6.913,6.9173,6.9265,6.9365,6.9444,6.9417,6.9494,6.9562,6.9666,6.9732,6.9814,6.9938,7.0037,7.0083,7.0181,7.0247,7.024,7.0272,7.0269,7.0279,7.008,7.0047,7.0277,7.0277,7.0277,7.0277,7.0277,7.0276,6.9264,6.9402,6.9419,6.9585,6.9627,6.9743,6.979,6.9852,6.9905,7.0045,7.0128,7.0157,7.0216,7.0319,7.0409,7.042,7.0458,7.0497,7.0503,7.0317,7.0292,7.0269,7.0238,7.0504,7.0505,7.0695,7.0697,7.0698]},{"header":{"parameterUnit":"m.s-1","parameterCategory":1,"la1":30.2991,"la2":30.254,"lo1":-89.0895,"lo2":-89.0444,"dy":0.0017,"dx":0.0017,"nx":28,"ny":28,"refTime":"2024-04-01T21:00:00:Z","depth":0,"parameterNumber":3,"parameterNumberName":"V-component_of_WINDS"},"data":[0,0,0,0,0,0,0,0,0,0,0,0,0,0,0,0,0,0,0,0,0,0,0,0,0,0,0,0,0,0,0,0,0,0,0,0,0,0,0,0,0,0,0,0,0,0,0,0,0,0,0,0,0,0,0,0,0,0,-3.4529,-3.4527,0,-3.43,-3.4297,-3.4295,-3.4234,-3.4236,-3.4237,-3.4238,-3.3993,-3.3985,-3.3977,0,0,0,0,0,0,0,0,0,0,0,0,0,-3.4906,-3.49,-3.453,-3.4527,-3.4524,-3.4301,-3.4297,-3.4294,-3.4234,-3.4236,-3.4237,-3.4239,-3.3995,-3.3986,-3.3976,0,0,0,0,0,0,0,0,0,0,0,0,0,-3.4716,-3.4898,-3.453,-3.4467,-3.4459,-3.4301,-3.4297,-3.4293,-3.4234,-3.4236,-3.4238,-3.424,-3.3998,-3.3987,-3.3975,-3.386,0,0,-3.3939,-3.3934,0,0,0,0,0,0,0,0,-3.4727,-3.4702,-3.4479,-3.4471,-3.4462,-3.4298,-3.434,-3.4148,-3.4233,-3.4319,-3.4239,-3.4241,-3.4092,-3.4072,-3.4024,-3.3848,-3.3838,-3.3938,-3.3931,-3.3926,-3.3922,0,0,0,0,0,0,0,-3.474,-3.4712,-3.4439,-3.4476,-3.4466,-3.4447,-3.4423,-3.4303,-3.4196,-3.4312,-3.4307,-3.4281,-3.4087,-3.4036,-3.4018,-3.3834,-3.3938,-3.3928,-3.3921,-3.3916,-3.3551,-3.3548,0,0,0,0,0,0,-3.4766,-3.4723,-3.4446,-3.4432,-3.4603,-3.4439,-3.4411,-3.4349,-3.4197,-3.4176,-3.428,-3.4279,-3.4055,-3.4032,-3.4009,-3.3863,-3.3926,-3.3915,-3.3908,-3.3553,-3.355,-3.3547,0,0,0,0,0,0,-3.4774,-3.4742,-3.4455,-3.4576,-3.4538,-3.443,-3.436,-3.4343,-3.4291,-3.4173,-3.4153,-3.4247,-3.4056,-3.4026,-3.3898,-3.3854,-3.3909,-3.3899,-3.3556,-3.3552,-3.3549,-3.3572,0,0,0,0,0,0,-3.4785,-3.4745,-3.4702,-3.4576,-3.4532,-3.4351,-3.4357,-3.4337,-3.4273,-3.427,-3.4137,-3.4117,-3.4055,-3.3916,-3.3886,-3.3839,-3.389,-3.356,-3.3555,-3.355,-3.3575,-3.3569,-3.3565,0,0,0,0,0,-3.4799,-3.4715,-3.47,-3.4667,-3.4477,-3.4348,-3.4323,-3.4256,-3.4269,-3.4224,-3.4148,-3.4121,-3.3865,-3.3903,-3.3869,-3.3818,-3.3562,-3.3556,-3.355,-3.3577,-3.357,-3.3565,0,0,0,0,0,0,-3.4835,-3.4698,-3.4679,-3.4553,-3.4464,-3.4339,-3.4279,-3.4252,-3.4153,-3.4155,-3.4073,-3.4043,-3.3921,-3.3856,-3.3902,-3.3698,-3.3713,-3.37,-3.3744,-3.3737,-3.3733,-3.375,-3.388,0,0,0,0,0,-3.483,-3.474,-3.4623,-3.4523,-3.448,-3.4388,-3.4329,-3.4286,-3.4188,-3.4148,-3.4063,-3.3966,-3.3863,-3.3797,-3.3696,-3.3566,-3.3535,-3.3513,-3.3509,-3.3505,-3.3494,-3.342,-3.3408,-3.3528,-3.3528,-3.3528,0,0,-3.4815,-3.4729,-3.4676,-3.4528,-3.4454,-3.436,-3.4355,-3.4256,-3.4184,-3.4132,-3.4007,-3.3941,-3.3827,-3.3698,-3.3636,-3.364,-3.3455,-3.3498,-3.3496,-3.3486,-3.3412,-3.3401,-3.3391,-3.3524,-3.3525,-3.3525,0,0,-3.4741,-3.4668,-3.4576,-3.4502,-3.4391,-3.433,-3.4309,-3.4188,-3.4143,-3.4017,-3.3976,-3.3888,-3.3713,-3.3634,-3.3571,-3.3469,-3.344,-3.3438,-3.3411,-3.3339,-3.333,-3.3321,-3.3283,-3.3271,-3.3428,-3.3428,-3.3428,0,-3.4736,-3.4596,-3.4532,-3.4435,-3.437,-3.4323,-3.4228,-3.4158,-3.4018,-3.3972,-3.398,-3.3761,-3.368,-3.3532,-3.3507,-3.3458,-3.3428,-3.3451,-3.3337,-3.3328,-3.3318,-3.3281,-3.3267,-3.3428,-3.3428,-3.3428,-3.3428,0,-3.4594,-3.4498,-3.4437,-3.4307,-3.4235,-3.414,-3.4059,-3.3993,-3.3957,-3.3895,-3.3766,-3.367,-3.3548,-3.351,-3.3472,-3.3355,-3.3361,-3.3354,-3.3367,-3.3309,-3.3272,-3.3257,-3.3429,-3.3428,-3.3428,-3.3428,0,0,-3.4534,-3.4372,-3.4351,-3.4291,-3.4165,-3.4088,-3.3989,-3.3875,-3.3819,-3.3724,-3.3638,-3.3493,-3.3486,-3.3414,-3.3367,-3.3304,-3.3228,-3.3304,-3.33,-3.3292,-3.3092,-3.3097,-3.3082,-3.321,-3.3207,-3.3204,-3.3101,0,-3.4443,-3.4269,-3.4209,-3.4064,-3.3973,-3.3928,-3.3842,-3.3754,-3.3694,-3.3605,-3.3537,-3.3435,-3.3435,-3.3391,-3.3327,-3.3251,-3.3186,-3.3258,-3.3125,-3.3121,-3.3154,-3.3063,-3.3067,-3.2974,-3.3086,-3.3084,-3.3082,0,-3.4313,-3.422,-3.4067,-3.3954,-3.3913,-3.3838,-3.3727,-3.3644,-3.3543,-3.3503,-3.3425,-3.3383,-3.3275,-3.3297,-3.3146,-3.3197,-3.3139,-3.3093,-3.3088,-3.3071,-3.3097,-3.3041,-3.2943,-3.2929,-3.3059,-3.3061,-3.3063,0,-3.4283,-3.4119,-3.4007,-3.3957,-3.3822,-3.377,-3.3711,-3.3612,-3.3547,-3.3449,-3.3406,-3.3296,-3.3236,-3.315,-3.3079,-3.3101,-3.2934,-3.295,-3.2895,-3.2897,-3.286,-3.2863,-3.2749,-3.2827,-3.2827,-3.2827,-3.2827,0,-3.4186,-3.4094,-3.3992,-3.3922,-3.3817,-3.3748,-3.3645,-3.3582,-3.3495,-3.341,-3.3363,-3.3284,-3.3196,-3.3104,-3.3047,-3.293,-3.2903,-3.2866,-3.2852,-3.2869,-3.2874,-3.2828,-3.2832,-3.2823,-3.2824,-3.2825,-3.2825,0,-3.4133,-3.4062,-3.3936,-3.382,-3.3789,-3.3716,-3.3615,-3.3544,-3.3483,-3.3376,-3.3347,-3.325,-3.314,-3.3061,-3.2918,-3.288,-3.2754,-3.274,-3.2789,-3.2782,-3.2731,-3.2737,-3.2583,-3.2558,-3.2654,-3.2654,-3.2653,0,-3.4076,-3.4004,-3.3881,-3.3823,-3.3765,-3.3672,-3.3606,-3.3535,-3.3468,-3.3348,-3.3291,-3.3179,-3.3085,-3.2911,-3.2826,-3.2716,-3.2698,-3.2652,-3.2681,-3.2701,-3.2695,-3.27,-3.2692,-3.2647,-3.2646,-3.2646,-3.2645,0,-3.398,-3.3949,-3.3858,-3.3754,-3.3679,-3.3593,-3.3506,-3.346,-3.3373,-3.33,-3.3189,-3.3117,-3.2973,-3.2861,-3.2744,-3.2679,-3.2646,-3.2638,-3.2619,-3.2635,-3.2666,-3.2647,-3.2776,-3.2641,-3.2641,-3.2641,-3.2642,-3.2642,-3.3921,-3.3856,-3.376,-3.366,-3.3588,-3.3509,-3.3437,-3.3369,-3.3276,-3.3156,-3.3119,-3.3004,-3.2903,-3.2743,-3.2677,-3.2583,-3.2585,-3.2558,-3.2551,-3.2545,-3.2545,-3.2683,-3.2561,-3.2561,-3.2561,-3.2561,-3.2561,0,-3.3822,-3.3759,-3.3668,-3.355,-3.3471,-3.3453,-3.3356,-3.329,-3.319,-3.3101,-3.3011,-3.2883,-3.2775,-3.2682,-3.2569,-3.2512,-3.2495,-3.2485,-3.2487,-3.2472,-3.2551,-3.2577,-3.2501,-3.2501,-3.2501,-3.2501,-3.2501,-3.2501,-3.3761,-3.3649,-3.3607,-3.3458,-3.3394,-3.3284,-3.323,-3.3155,-3.3084,-3.2945,-3.2856,-3.2798,-3.2706,-3.2587,-3.2486,-3.2461,-3.2421,-3.2414,-3.2386,-3.246,-3.2467,-3.2473,-3.2498,-3.2407,-3.2406,-3.2315,-3.2314,-3.2313]}]]